Flag for U.S.A. Weather past 2 weeks in Victoria, Texas, U.S.A.

Now
36 °F

Clear.


Feels Like: 30 °F
Forecast: 31 / 54 °F
Wind: 8 mph from North

Location: Victoria Regional Airport

Current Time: Mar 6, 2015 at 2:01:05 AM

Latest Report: Mar 6, 2015 at 12:51 AM


Visibility: 10 mi

Pressure: 30.57 "Hg

Humidity: 73%

Dew point: 28 °F

Location of VictoriaLocation

Historic Weather in Victoria — Graph

°F

Victoria temperature yesterday

Maximum temperature yesterday: 51 °F (at 3:51 PM)
Minimum temperature yesterday: 36 °F (at 7:51 AM)
Average temperature yesterday: 41 °F

Past Weeks' High & Low Weather Summary

 TemperatureHumidityPressure
High76 °F (Feb 21, 2:51 PM)100% (Feb 22, 5:51 AM)30.58 "Hg (Feb 22, 5:51 AM)
Low33 °F (Feb 24, 5:51 AM)38% (Feb 26, 2:51 PM)29.77 "Hg (Mar 4, 2:51 PM)
Average52 °F85%30.12 "Hg
* Reported Feb 19 12:51 AM — Mar 6 12:51 AM, Victoria, Weather by CustomWeather, © 2015

Note: Actual official high and low records may vary slightly from our data, if they occured in-between our weather recording intervals... More about our weather records

Advertising

Victoria weather history for previous 24 hours

 ConditionsComfort  
Time TempWeatherWind HumidityBarometerVisibility
12:51 AM
Fri, Mar 6
36 °FClear.8 mph73%30.57 "Hg10 mi
11:51 PM
Thu, Mar 5
37 °FClear.8 mph70%30.58 "Hg10 mi
10:51 PM39 °FClear.12 mph65%30.58 "Hg10 mi
9:51 PM40 °FClear.12 mph63%30.56 "Hg10 mi
8:51 PM40 °FClear.12 mph68%30.55 "Hg10 mi
7:51 PM41 °FClear.9 mph62%30.53 "Hg10 mi
6:51 PM44 °FClear.15 mph51%30.50 "Hg10 mi
5:51 PM47 °FSunny.21 mph48%30.47 "Hg10 mi
4:51 PM50 °FSunny.16 mph46%30.46 "Hg10 mi
3:51 PM51 °FSunny.16 mph50%30.44 "Hg10 mi
2:51 PM49 °FScattered clouds.18 mph55%30.44 "Hg10 mi
1:51 PM48 °FPassing clouds.22 mph59%30.47 "Hg10 mi
12:51 PM43 °FOvercast.20 mph68%30.48 "Hg10 mi
11:51 AM40 °FOvercast.17 mph77%30.49 "Hg10 mi
10:51 AM38 °FOvercast.24 mph79%30.49 "Hg10 mi
9:51 AM37 °FOvercast.23 mph82%30.46 "Hg10 mi
8:51 AM36 °FOvercast.22 mph85%30.42 "Hg10 mi
7:51 AM36 °FLight rain. Mostly cloudy.22 mph89%30.37 "Hg10 mi
7:00 AM37 °FOvercast.22 mph89%30.32 "Hg10 mi
5:51 AM37 °FLight rain. Overcast.22 mph89%30.26 "Hg10 mi
4:51 AM38 °FOvercast.20 mph86%30.24 "Hg10 mi
4:02 AM38 °FOvercast.23 mph90%30.17 "Hg10 mi
3:51 AM38 °FOvercast.21 mph90%30.16 "Hg10 mi
2:58 AM38 °FOvercast.21 mph90%30.16 "Hg10 mi
Weather by CustomWeather, © 2015

See weather overviewHow to use our weather pages